Vorticity
9 7 4 7 3 9 7 6 4 7 3 5 4 4 4 6 5 5 6 5 8 4 3 1 2 4 5 5 6 5 8 9 8 8 10 9 13 11 9 6 5 5 7 7 3 15 11 11 14
1 -1 8 8 10 8 5 6 6 5 3 3 4 5 5 3 5 7 7 7 6 3 2 3 5 5 6 5 8 7 8 7 7 8 9 10 12 17 11 11 8 9 9 11 14 11 9 11 14
-4 2 10 10 13 7 6 6 6 4 2 3 3 4 4 6 7 8 8 8 5 3 3 5 5 5 7 8 8 6 7 8 8 9 11 13 12 13 13 12 12 12 9 4 17 14 10 9 12
-3 7 23 5 10 8 5 7 5 4 1 2 5 5 7 7 7 8 8 6 5 3 5 6 6 7 5 6 9 9 8 7 11 9 3 4 5 9 4 4 8 8 7 5 16 16 8 11 14
1 13 17 7 10 8 5 5 7 5 3 4 7 8 9 7 8 9 7 6 3 3 7 7 6 5 6 6 8 10 5 6 9 13 13 10 10 15 8 5 8 7 9 11 12 12 12 10 10
13 7 3 12 -4 7 5 3 8 5 7 3 5 8 6 5 7 8 7 3 3 6 6 5 4 6 5 5 8 6 9 14 20 22 22 19 19 15 14 14 19 11 9 13 15 9 19 10 8
2 11 1 13 9 4 5 3 8 6 5 4 9 7 5 5 6 8 6 4 3 8 5 6 4 5 6 6 9 13 16 11 9 8 8 6 5 10 17 15 17 13 9 10 23 10 13 16 7
9 7 6 13 7 5 9 5 8 9 5 5 6 8 6 8 9 9 5 3 4 7 6 3 5 3 6 10 15 13 10 14 11 13 15 16 12 9 6 4 8 10 15 8 19 3 13 15 15
9 12 12 11 4 6 6 12 7 5 6 9 8 9 7 7 9 8 5 4 2 8 9 2 5 5 7 16 11 14 7 17 12 12 15 18 18 19 15 13 9 8 10 11 17 9 3 14 15
10 9 9 3 8 7 6 7 7 9 9 5 3 7 9 7 10 8 5 2 2 9 9 5 4 7 10 13 14 8 7 22 9 23 19 18 19 18 15 16 17 12 9 16 12 12 8 17 12
9 4 2 11 16 5 11 4 6 12 4 1 7 9 2 8 7 11 5 1 2 9 6 7 5 6 18 11 9 5 3 22 21 17 12 13 19 20 18 20 19 15 15 10 13 9 10 13 13
8 6 3 9 9 5 2 1 -2 3 3 0 11 5 6 9 13 8 4 3 5 9 9 4 6 6 14 11 6 9 17 21 16 13 10 11 16 21 12 17 19 25 11 9 29 5 6 14 5
6 8 6 5 2 12 8 6 4 9 4 11 9 3 7 10 12 7 5 4 7 8 11 4 8 15 9 10 8 10 11 6 7 30 15 15 14 18 16 17 21 36 18 14 7 27 3 3 11
4 3 5 12 25 2 -3 8 -10 6 8 13 6 3 6 10 11 9 7 3 7 9 9 5 6 19 9 10 12 17 9 17 7 5 25 14 12 21 22 18 10 10 21 13 11 14 15 7 6
3 5 5 30 3 3 4 7 -3 6 10 8 1 6 6 8 11 6 2 1 8 12 4 6 6 12 7 14 15 11 27 16 17 8 23 7 9 24 17 20 20 14 9 21 14 14 14 12 6
5 7 8 13 18 2 7 3 9 5 1 7 3 5 5 8 10 6 3 6 10 13 4 9 14 8 8 12 9 13 14 6 14 19 20 15 7 10 20 21 20 15 19 20 13 15 15 10 5
5 16 19 -3 7 28 24 5 -5 0 2 12 -0 7 3 9 8 12 9 5 8 11 6 9 17 5 11 9 8 -3 -1 12 20 10 19 13 13 7 17 15 23 19 18 13 14 20 11 7 8
18 6 12 16 1 3 9 -5 7 10 0 11 0 4 10 5 9 11 8 7 7 8 7 8 14 3 13 5 16 17 19 19 5 19 18 25 13 12 11 14 25 15 18 16 18 21 7 6 9
8 9 7 6 4 10 4 2 -1 5 7 5 8 7 6 4 7 14 6 9 8 6 9 12 10 4 12 12 15 15 17 16 7 22 55 26 28 16 8 13 12 25 10 18 18 11 9 13 15
8 11 10 5 3 3 1 2 10 15 11 9 12 12 2 2 4 13 6 12 9 6 8 17 9 7 23 14 -10 -0 4 9 15 5 10 -2 30 17 18 12 13 13 15 10 8 14 16 17 14
7 6 10 8 6 3 7 10 10 10 6 13 6 5 6 3 9 14 9 14 8 6 9 16 8 9 2 4 8 22 -3 -4 11 11 5 -2 20 12 12 16 11 13 16 12 16 12 11 15 14
2 3 4 3 4 10 7 11 5 8 13 12 13 11 4 12 15 8 11 13 8 7 9 15 6 7 17 0 6 24 9 16 5 12 7 15 2 13 24 20 16 14 5 9 8 8 8 13 10
3 4 5 5 5 5 10 8 10 13 18 19 18 15 6 12 15 9 14 8 10 8 8 9 18 3 12 1 6 22 3 11 7 13 3 13 13 13 22 12 17 18 11 9 16 8 7 5 8
4 7 6 7 6 5 15 9 26 4 8 7 13 11 12 2 5 10 15 5 11 8 10 7 10 7 8 3 5 12 29 6 6 12 -1 6 7 13 15 17 17 19 21 24 15 10 8 8 12
7 8 4 10 20 20 1 8 13 5 4 12 15 19 9 6 17 9 11 4 11 9 11 4 15 12 6 5 6 12 17 2 2 9 27 20 12 11 8 34 10 16 14 20 22 22 27 22 16
5 9 12 12 18 24 5 10 16 3 7 10 11 14 12 1 15 14 8 6 9 9 8 8 11 11 10 5 7 10 6 6 13 15 41 8 1 5 10 29 15 12 9 12 12 17 14 26 -8
5 5 7 8 8 7 10 6 15 16 13 11 10 8 3 8 10 16 7 14 7 9 10 9 10 12 16 5 7 8 4 18 14 19 -0 13 14 15 4 11 15 10 12 -11 9 17 -9 13 15
4 6 3 9 10 3 13 10 17 2 1 13 7 7 1 6 9 10 5 21 6 8 8 8 10 17 19 4 6 9 7 19 6 2 10 -3 21 27 6 14 18 9 12 21 34 10 0 12 -4
2 4 6 10 6 5 9 9 10 -0 8 6 8 -2 11 20 19 5 4 24 8 7 9 8 11 26 17 4 2 8 6 -0 10 5 14 6 13 4 22 19 13 7 6 17 12 2 17 19 -23
7 8 5 4 4 10 -5 14 9 5 10 9 8 13 7 13 19 3 9 18 9 7 9 8 14 11 20 18 9 10 13 8 8 15 9 11 13 11 9 35 25 7 7 -8 13 9 4 30 26
Height
5903 5903 5902 5902 5903 5898 5895 5893 5890 5889 5887 5883 5881 5879 5877 5874 5871 5871 5865 5862 5859 5856 5851 5848 5844 5841 5838 5835 5832 5829 5825 5822 5819 5816 5815 5815 5814 5812 5811 5811 5812 5813 5814 5818 5821 5823 5826 5830 5834
5898 5898 5897 5896 5897 5895 5895 5890 5888 5886 5883 5881 5878 5876 5873 5869 5867 5865 5861 5857 5853 5850 5846 5841 5839 5835 5832 5828 5824 5819 5815 5812 5810 5807 5805 5804 5804 5802 5801 5801 5803 5805 5806 5808 5812 5816 5819 5823 5827
5895 5893 5894 5891 5891 5892 5889 5886 5884 5881 5880 5877 5874 5872 5868 5865 5862 5859 5855 5851 5848 5844 5840 5836 5833 5830 5826 5821 5815 5810 5807 5803 5799 5796 5793 5792 5791 5791 5791 5791 5792 5795 5797 5799 5803 5807 5811 5815 5820
5890 5889 5889 5888 5886 5885 5883 5881 5880 5877 5875 5872 5870 5867 5865 5860 5858 5854 5850 5846 5842 5839 5835 5831 5827 5823 5818 5813 5809 5803 5799 5793 5790 5786 5783 5781 5781 5780 5780 5780 5782 5785 5789 5791 5794 5798 5803 5808 5813
5887 5886 5885 5884 5882 5880 5879 5877 5876 5874 5871 5868 5865 5862 5860 5856 5853 5849 5846 5842 5838 5835 5831 5826 5821 5816 5811 5807 5801 5795 5790 5784 5779 5776 5772 5769 5768 5769 5769 5770 5772 5774 5778 5782 5785 5789 5795 5800 5806
5883 5884 5883 5881 5878 5875 5873 5872 5871 5869 5866 5863 5861 5859 5856 5852 5849 5845 5841 5837 5833 5830 5825 5819 5815 5810 5806 5800 5793 5786 5779 5773 5768 5764 5761 5758 5756 5756 5756 5758 5760 5764 5767 5771 5776 5781 5786 5793 5800
5880 5880 5879 5878 5875 5872 5869 5868 5866 5864 5862 5858 5856 5854 5851 5847 5844 5839 5835 5832 5827 5824 5819 5813 5809 5804 5798 5791 5783 5776 5769 5763 5757 5753 5750 5748 5746 5745 5746 5747 5750 5753 5757 5762 5767 5773 5779 5786 5793
5875 5876 5875 5873 5870 5868 5864 5864 5862 5860 5858 5854 5851 5849 5846 5842 5839 5833 5829 5825 5822 5818 5813 5808 5803 5797 5790 5782 5774 5766 5760 5753 5747 5742 5738 5736 5735 5735 5736 5738 5740 5743 5747 5752 5759 5766 5772 5779 5787
5870 5871 5870 5867 5864 5863 5861 5860 5857 5855 5852 5850 5846 5843 5840 5837 5834 5827 5824 5821 5818 5814 5808 5803 5797 5791 5783 5774 5766 5759 5751 5743 5736 5731 5726 5723 5722 5723 5724 5726 5730 5734 5738 5744 5751 5758 5765 5772 5780
5866 5866 5865 5863 5860 5858 5857 5856 5853 5850 5847 5844 5841 5838 5835 5833 5828 5822 5819 5817 5813 5808 5803 5797 5791 5784 5775 5767 5760 5752 5744 5735 5728 5722 5718 5715 5712 5711 5712 5714 5718 5723 5729 5736 5743 5751 5759 5766 5774
5861 5862 5859 5859 5855 5853 5853 5851 5848 5846 5843 5840 5836 5834 5831 5829 5823 5818 5815 5813 5808 5803 5797 5791 5785 5777 5769 5761 5754 5746 5738 5729 5722 5717 5712 5708 5705 5703 5703 5705 5708 5713 5720 5727 5736 5745 5752 5760 5769
5855 5856 5854 5853 5851 5849 5848 5846 5845 5842 5840 5836 5832 5831 5828 5824 5819 5815 5812 5808 5804 5799 5792 5786 5779 5771 5764 5756 5749 5741 5732 5724 5718 5712 5707 5703 5699 5697 5697 5697 5700 5703 5711 5720 5728 5738 5747 5755 5764
5848 5851 5847 5846 5844 5844 5843 5841 5840 5838 5836 5832 5829 5827 5824 5820 5814 5811 5808 5804 5800 5794 5788 5782 5774 5767 5760 5752 5744 5736 5728 5720 5713 5707 5702 5698 5694 5692 5691 5692 5694 5697 5704 5713 5722 5732 5741 5750 5758
5843 5844 5844 5842 5839 5839 5838 5837 5834 5834 5831 5828 5825 5822 5819 5815 5810 5808 5804 5801 5795 5790 5784 5777 5769 5764 5756 5748 5741 5732 5724 5716 5710 5703 5697 5695 5692 5689 5688 5688 5691 5696 5701 5709 5716 5725 5736 5746 5754
5840 5840 5839 5836 5835 5833 5832 5832 5831 5828 5827 5825 5822 5819 5815 5811 5808 5804 5801 5797 5792 5787 5780 5772 5766 5760 5753 5746 5738 5730 5722 5715 5707 5701 5696 5693 5691 5687 5686 5687 5689 5693 5698 5704 5712 5721 5730 5740 5750
5837 5835 5835 5831 5830 5827 5827 5827 5827 5824 5823 5823 5820 5816 5812 5808 5804 5801 5797 5793 5789 5783 5776 5769 5764 5758 5751 5744 5737 5730 5722 5715 5706 5699 5695 5692 5691 5688 5686 5686 5687 5690 5695 5702 5710 5717 5727 5737 5747
5830 5830 5829 5829 5823 5822 5823 5824 5824 5822 5819 5820 5816 5813 5810 5805 5802 5798 5795 5791 5786 5780 5774 5767 5762 5756 5749 5742 5737 5731 5724 5716 5707 5700 5694 5692 5691 5689 5688 5687 5688 5691 5696 5702 5709 5716 5725 5735 5745
5825 5823 5824 5824 5821 5818 5818 5818 5819 5820 5817 5814 5812 5809 5806 5802 5798 5795 5792 5788 5783 5777 5771 5766 5760 5754 5748 5741 5737 5730 5725 5718 5710 5703 5696 5692 5690 5690 5690 5690 5690 5694 5698 5703 5709 5716 5726 5734 5743
5817 5818 5820 5819 5816 5814 5814 5813 5815 5813 5811 5809 5807 5804 5801 5798 5794 5791 5789 5785 5780 5775 5769 5764 5758 5753 5747 5742 5737 5731 5726 5720 5714 5707 5699 5695 5692 5691 5691 5692 5693 5697 5701 5706 5711 5719 5727 5736 5743
5812 5813 5815 5813 5811 5809 5809 5810 5810 5807 5806 5805 5802 5800 5797 5794 5790 5788 5785 5781 5777 5773 5767 5762 5757 5751 5746 5742 5739 5734 5729 5723 5717 5711 5705 5700 5696 5694 5694 5696 5697 5700 5704 5709 5715 5721 5728 5735 5742
5807 5808 5809 5807 5805 5802 5803 5805 5802 5801 5801 5799 5797 5795 5793 5790 5787 5784 5781 5778 5774 5770 5766 5760 5757 5751 5747 5743 5739 5735 5731 5725 5720 5714 5709 5705 5701 5698 5698 5698 5701 5703 5707 5712 5717 5724 5730 5737 5744
5801 5803 5802 5800 5799 5799 5800 5799 5797 5797 5795 5794 5791 5790 5788 5786 5783 5780 5778 5774 5772 5768 5764 5759 5757 5751 5747 5744 5740 5736 5733 5728 5723 5718 5714 5709 5705 5702 5701 5701 5703 5705 5709 5714 5719 5726 5732 5738 5744
5796 5795 5795 5795 5795 5794 5798 5794 5794 5792 5791 5789 5788 5786 5784 5782 5779 5777 5775 5772 5770 5767 5762 5758 5755 5752 5748 5745 5741 5738 5734 5730 5726 5722 5718 5713 5710 5707 5705 5705 5705 5708 5711 5716 5722 5728 5734 5740 5747
5788 5788 5790 5791 5791 5789 5792 5790 5792 5789 5787 5786 5784 5782 5781 5779 5776 5774 5772 5770 5768 5765 5760 5757 5755 5752 5748 5746 5743 5739 5736 5731 5728 5725 5722 5718 5715 5712 5710 5708 5709 5710 5713 5717 5722 5728 5734 5743 5750
5781 5784 5787 5787 5786 5786 5784 5785 5787 5784 5782 5782 5780 5778 5778 5775 5773 5772 5770 5768 5767 5764 5760 5757 5754 5752 5749 5746 5744 5741 5739 5734 5731 5728 5725 5723 5720 5717 5716 5714 5715 5716 5718 5721 5725 5729 5737 5745 5753
5776 5778 5781 5781 5782 5786 5780 5782 5784 5778 5778 5778 5776 5775 5774 5772 5770 5769 5768 5766 5765 5762 5759 5757 5754 5752 5750 5748 5746 5743 5741 5737 5734 5730 5727 5727 5725 5724 5721 5721 5722 5724 5726 5728 5733 5738 5744 5751 5753
5770 5771 5776 5777 5778 5777 5780 5779 5778 5775 5775 5774 5773 5773 5772 5770 5768 5767 5766 5765 5763 5761 5759 5756 5754 5752 5750 5749 5748 5746 5744 5741 5737 5735 5733 5733 5731 5729 5728 5727 5729 5731 5733 5736 5740 5744 5750 5756 5759
5764 5767 5770 5771 5772 5773 5776 5776 5777 5774 5772 5770 5770 5770 5769 5768 5766 5766 5765 5764 5762 5761 5759 5757 5754 5752 5751 5750 5749 5748 5747 5745 5742 5739 5738 5737 5735 5732 5733 5733 5734 5735 5739 5742 5747 5752 5756 5758 5761
5758 5762 5766 5766 5767 5769 5773 5777 5770 5769 5769 5767 5766 5767 5767 5765 5764 5764 5764 5762 5762 5761 5759 5757 5755 5752 5752 5751 5751 5751 5750 5748 5746 5744 5743 5742 5740 5738 5737 5738 5739 5740 5743 5748 5750 5757 5761 5766 5768
5750 5756 5758 5759 5762 5764 5767 5772 5766 5766 5766 5765 5764 5764 5764 5764 5763 5763 5762 5762 5762 5761 5760 5758 5756 5754 5754 5752 5753 5752 5752 5751 5749 5748 5747 5746 5744 5743 5742 5742 5745 5747 5749 5753 5758 5761 5765 5769 5774